Time,TemperatureF,DewpointF,PressureIn,WindDirection,WindDirectionDegrees,WindSpeedMPH,WindSpeedGustMPH,Humidity,HourlyPrecipIn,Conditions,Clouds,dailyrainin,SolarRadiationWatts/m^2,SoftwareType,DateUTC
2013-04-01 00:00:00,41.2,37.0,29.68,East,82,0.0,0.0,85,0.00,,,0.04,0,Wunderground v.1.15,2013-04-01 04:00:00,
2013-04-01 00:06:00,41.1,36.9,29.68,East,82,0.0,0.0,85,0.00,,,0.00,0,Wunderground v.1.15,2013-04-01 04:06:00,
2013-04-01 00:07:00,41.1,36.9,29.68,East,82,0.0,0.0,85,0.00,,,0.00,0,Wunderground v.1.15,2013-04-01 04:07:00,
2013-04-01 00:13:00,41.1,37.2,29.68,East,82,0.0,0.0,86,0.00,,,0.00,0,Wunderground v.1.15,2013-04-01 04:13:00,
2013-04-01 00:18:00,40.9,37.0,29.67,East,82,0.0,0.0,86,0.00,,,0.00,0,Wunderground v.1.15,2013-04-01 04:18:00,
2013-04-01 00:20:00,40.9,37.0,29.67,East,82,0.0,0.0,86,0.00,,,0.00,0,Wunderground v.1.15,2013-04-01 04:20:00,
2013-04-01 00:26:00,40.9,37.0,29.67,East,82,0.0,0.0,86,0.00,,,0.00,0,Wunderground v.1.15,2013-04-01 04:26:00,
2013-04-01 00:31:00,40.8,36.9,29.67,East,82,0.0,0.0,86,0.00,,,0.00,0,Wunderground v.1.15,2013-04-01 04:31:00,
2013-04-01 00:36:00,40.6,36.7,29.67,East,82,0.0,0.0,86,0.00,,,0.00,0,Wunderground v.1.15,2013-04-01 04:36:00,
2013-04-01 00:42:00,40.5,36.9,29.67,East,82,0.0,0.0,87,0.00,,,0.00,0,Wunderground v.1.15,2013-04-01 04:42:00,
2013-04-01 00:48:00,40.3,36.7,29.67,East,82,0.0,0.0,87,0.00,,,0.01,0,Wunderground v.1.15,2013-04-01 04:48:00,
2013-04-01 00:53:00,40.3,37.0,29.67,East,82,0.0,0.0,88,0.00,,,0.01,0,Wunderground v.1.15,2013-04-01 04:53:00,
2013-04-01 00:59:00,40.3,37.0,29.67,East,82,0.0,0.0,88,0.00,,,0.01,0,Wunderground v.1.15,2013-04-01 04:59:00,
2013-04-01 01:04:00,40.3,37.0,29.66,East,82,0.0,0.0,88,0.00,,,0.02,0,Wunderground v.1.15,2013-04-01 05:04:00,
2013-04-01 01:09:00,40.3,37.0,29.66,East,82,0.0,0.0,88,0.00,,,0.02,0,Wunderground v.1.15,2013-04-01 05:09:00,
2013-04-01 01:14:00,40.3,37.0,29.66,East,82,0.0,0.0,88,0.00,,,0.02,0,Wunderground v.1.15,2013-04-01 05:14:00,
2013-04-01 01:21:00,40.3,37.3,29.66,East,82,0.0,0.0,89,0.00,,,0.02,0,Wunderground v.1.15,2013-04-01 05:21:00,
2013-04-01 01:26:00,40.3,37.3,29.66,East,82,0.0,0.0,89,0.00,,,0.03,0,Wunderground v.1.15,2013-04-01 05:26:00,
2013-04-01 01:31:00,40.3,37.3,29.66,East,82,0.0,0.0,89,0.00,,,0.03,0,Wunderground v.1.15,2013-04-01 05:31:00,
2013-04-01 01:37:00,40.2,37.2,29.66,East,82,0.0,0.0,89,0.00,,,0.03,0,Wunderground v.1.15,2013-04-01 05:37:00,
2013-04-01 01:42:00,40.2,37.2,29.66,East,82,0.0,0.0,89,0.00,,,0.03,0,Wunderground v.1.15,2013-04-01 05:42:00,
2013-04-01 01:48:00,40.2,37.2,29.65,East,82,0.0,0.0,89,0.00,,,0.03,0,Wunderground v.1.15,2013-04-01 05:48:00,
2013-04-01 01:54:00,40.2,37.2,29.65,East,82,0.0,0.0,89,0.00,,,0.03,0,Wunderground v.1.15,2013-04-01 05:54:00,
2013-04-01 01:59:00,40.1,37.1,29.65,East,82,0.0,0.0,89,0.00,,,0.04,0,Wunderground v.1.15,2013-04-01 05:59:00,
2013-04-01 02:04:00,40.1,37.1,29.64,East,82,0.0,0.0,89,0.00,,,0.04,0,Wunderground v.1.15,2013-04-01 06:04:00,
2013-04-01 02:10:00,40.1,37.1,29.64,East,82,0.0,0.0,89,0.00,,,0.04,0,Wunderground v.1.15,2013-04-01 06:10:00,
2013-04-01 02:16:00,40.1,37.1,29.64,East,82,0.0,0.0,89,0.00,,,0.04,0,Wunderground v.1.15,2013-04-01 06:16:00,
2013-04-01 02:22:00,39.9,36.9,29.64,East,82,0.0,0.0,89,0.00,,,0.05,0,Wunderground v.1.15,2013-04-01 06:22:00,
2013-04-01 02:27:00,39.9,36.9,29.64,East,82,0.0,0.0,89,0.00,,,0.05,0,Wunderground v.1.15,2013-04-01 06:27:00,
2013-04-01 02:33:00,39.9,36.9,29.62,East,82,0.0,0.0,89,0.00,,,0.05,0,Wunderground v.1.15,2013-04-01 06:33:00,
2013-04-01 02:38:00,39.8,37.1,29.62,East,82,0.0,0.0,90,0.00,,,0.05,0,Wunderground v.1.15,2013-04-01 06:38:00,
2013-04-01 02:43:00,39.8,36.8,29.62,East,82,0.0,0.0,89,0.00,,,0.05,0,Wunderground v.1.15,2013-04-01 06:43:00,
2013-04-01 02:49:00,39.8,36.8,29.61,East,82,0.0,0.0,89,0.00,,,0.05,0,Wunderground v.1.15,2013-04-01 06:49:00,
2013-04-01 02:55:00,39.8,36.8,29.61,East,82,0.0,0.0,89,0.00,,,0.05,0,Wunderground v.1.15,2013-04-01 06:55:00,
2013-04-01 03:01:00,39.8,36.8,29.61,East,82,0.0,0.0,89,0.00,,,0.05,0,Wunderground v.1.15,2013-04-01 07:01:00,
2013-04-01 03:06:00,39.8,36.8,29.61,East,82,0.0,0.0,89,0.00,,,0.05,0,Wunderground v.1.15,2013-04-01 07:06:00,
2013-04-01 03:11:00,39.6,36.6,29.61,East,82,0.0,0.0,89,0.00,,,0.05,0,Wunderground v.1.15,2013-04-01 07:11:00,
2013-04-01 03:17:00,39.6,36.6,29.59,East,82,0.0,0.0,89,0.00,,,0.05,0,Wunderground v.1.15,2013-04-01 07:17:00,
2013-04-01 03:22:00,39.3,36.3,29.59,East,82,0.0,0.0,89,0.00,,,0.05,0,Wunderground v.1.15,2013-04-01 07:22:00,
2013-04-01 03:27:00,39.1,36.4,29.59,East,82,0.0,0.0,90,0.00,,,0.05,0,Wunderground v.1.15,2013-04-01 07:27:00,
2013-04-01 03:33:00,38.9,36.2,29.58,East,82,0.0,0.0,90,0.00,,,0.05,0,Wunderground v.1.15,2013-04-01 07:33:00,
2013-04-01 03:39:00,38.9,36.2,29.58,East,82,0.0,0.0,90,0.00,,,0.05,0,Wunderground v.1.15,2013-04-01 07:39:00,
2013-04-01 03:45:00,38.8,36.1,29.59,East,82,0.0,0.0,90,0.00,,,0.05,0,Wunderground v.1.15,2013-04-01 07:45:00,
2013-04-01 03:51:00,38.8,36.1,29.59,East,82,0.0,0.0,90,0.00,,,0.05,0,Wunderground v.1.15,2013-04-01 07:51:00,
2013-04-01 03:56:00,38.8,36.1,29.59,East,82,0.0,0.0,90,0.00,,,0.05,0,Wunderground v.1.15,2013-04-01 07:56:00,
2013-04-01 04:02:00,38.9,36.2,29.58,East,82,0.0,0.0,90,0.00,,,0.05,0,Wunderground v.1.15,2013-04-01 08:02:00,
2013-04-01 04:07:00,38.9,36.5,29.58,East,82,0.0,0.0,91,0.00,,,0.05,0,Wunderground v.1.15,2013-04-01 08:07:00,
2013-04-01 04:13:00,38.9,36.5,29.58,East,82,0.0,0.0,91,0.00,,,0.05,0,Wunderground v.1.15,2013-04-01 08:13:00,
2013-04-01 04:18:00,38.8,36.4,29.58,East,82,0.0,0.0,91,0.00,,,0.05,0,Wunderground v.1.15,2013-04-01 08:18:00,
2013-04-01 04:24:00,38.8,36.4,29.58,East,82,0.0,0.0,91,0.00,,,0.05,0,Wunderground v.1.15,2013-04-01 08:24:00,
2013-04-01 04:30:00,38.9,36.5,29.57,East,82,0.0,0.0,91,0.00,,,0.05,0,Wunderground v.1.15,2013-04-01 08:30:00,
2013-04-01 04:35:00,38.8,36.4,29.57,East,82,0.0,0.0,91,0.00,,,0.05,0,Wunderground v.1.15,2013-04-01 08:35:00,
2013-04-01 04:41:00,38.8,36.4,29.57,East,82,0.0,0.0,91,0.00,,,0.05,0,Wunderground v.1.15,2013-04-01 08:41:00,
2013-04-01 04:47:00,38.8,36.4,29.57,East,82,0.0,0.0,91,0.00,,,0.05,0,Wunderground v.1.15,2013-04-01 08:47:00,
2013-04-01 04:52:00,38.8,36.4,29.57,East,82,0.0,0.0,91,0.00,,,0.05,0,Wunderground v.1.15,2013-04-01 08:52:00,
2013-04-01 04:58:00,38.8,36.4,29.57,East,82,0.0,0.0,91,0.00,,,0.05,0,Wunderground v.1.15,2013-04-01 08:58:00,
2013-04-01 05:03:00,38.8,36.4,29.57,East,82,0.0,0.0,91,0.00,,,0.05,0,Wunderground v.1.15,2013-04-01 09:03:00,
2013-04-01 05:08:00,38.6,36.2,29.57,East,82,0.0,0.0,91,0.00,,,0.05,0,Wunderground v.1.15,2013-04-01 09:08:00,
2013-04-01 05:14:00,38.5,36.1,29.57,East,82,0.0,0.0,91,0.00,,,0.05,0,Wunderground v.1.15,2013-04-01 09:14:00,
2013-04-01 05:20:00,38.5,36.1,29.56,East,82,0.0,0.0,91,0.00,,,0.05,0,Wunderground v.1.15,2013-04-01 09:20:00,
2013-04-01 05:26:00,38.5,36.1,29.56,East,82,0.0,0.0,91,0.00,,,0.05,0,Wunderground v.1.15,2013-04-01 09:26:00,
2013-04-01 05:31:00,38.5,36.1,29.56,East,82,0.0,0.0,91,0.00,,,0.05,0,Wunderground v.1.15,2013-04-01 09:31:00,
2013-04-01 05:37:00,38.5,36.1,29.56,East,82,0.0,0.0,91,0.00,,,0.05,0,Wunderground v.1.15,2013-04-01 09:37:00,
2013-04-01 05:43:00,38.3,35.9,29.56,East,82,0.0,0.0,91,0.00,,,0.05,0,Wunderground v.1.15,2013-04-01 09:43:00,
2013-04-01 05:48:00,38.2,35.8,29.55,East,82,0.0,0.0,91,0.00,,,0.05,0,Wunderground v.1.15,2013-04-01 09:48:00,
2013-04-01 05:54:00,37.9,35.5,29.55,East,82,0.0,0.0,91,0.00,,,0.05,0,Wunderground v.1.15,2013-04-01 09:54:00,
2013-04-01 06:00:00,37.8,35.4,29.56,East,82,0.0,0.0,91,0.00,,,0.05,0,Wunderground v.1.15,2013-04-01 10:00:00,
2013-04-01 06:06:00,37.6,35.2,29.56,East,82,0.0,0.0,91,0.00,,,0.05,0,Wunderground v.1.15,2013-04-01 10:06:00,
2013-04-01 06:12:00,37.6,35.2,29.56,East,82,0.0,0.0,91,0.00,,,0.05,0,Wunderground v.1.15,2013-04-01 10:12:00,
2013-04-01 06:18:00,37.8,35.4,29.57,East,82,0.0,0.0,91,0.00,,,0.05,0,Wunderground v.1.15,2013-04-01 10:18:00,
2013-04-01 06:24:00,37.8,35.4,29.57,East,82,0.0,0.0,91,0.00,,,0.05,0,Wunderground v.1.15,2013-04-01 10:24:00,
2013-04-01 06:30:00,37.8,35.4,29.57,East,82,0.0,0.0,91,0.00,,,0.05,0,Wunderground v.1.15,2013-04-01 10:30:00,
2013-04-01 06:36:00,37.8,35.7,29.57,East,82,0.0,0.0,92,0.00,,,0.05,0,Wunderground v.1.15,2013-04-01 10:36:00,
2013-04-01 06:42:00,38.0,35.9,29.57,East,82,0.0,0.0,92,0.00,,,0.05,0,Wunderground v.1.15,2013-04-01 10:42:00,
2013-04-01 06:48:00,38.0,35.9,29.57,East,82,0.0,0.0,92,0.00,,,0.05,0,Wunderground v.1.15,2013-04-01 10:48:00,
2013-04-01 06:54:00,38.3,36.2,29.57,East,82,0.0,0.0,92,0.00,,,0.05,7,Wunderground v.1.15,2013-04-01 10:54:00,
2013-04-01 07:01:00,38.5,36.4,29.57,NW,304,0.0,0.0,92,0.00,,,0.05,12,Wunderground v.1.15,2013-04-01 11:01:00,
2013-04-01 07:06:00,38.6,36.5,29.57,NW,304,0.0,0.0,92,0.00,,,0.05,18,Wunderground v.1.15,2013-04-01 11:06:00,
2013-04-01 07:12:00,38.8,36.7,29.57,NW,304,0.0,0.0,92,0.00,,,0.05,32,Wunderground v.1.15,2013-04-01 11:12:00,
2013-04-01 07:17:00,38.9,36.8,29.56,NW,304,0.0,0.0,92,0.00,,,0.05,79,Wunderground v.1.15,2013-04-01 11:17:00,
2013-04-01 07:23:00,39.3,37.2,29.56,SSW,193,0.0,0.0,92,0.00,,,0.05,104,Wunderground v.1.15,2013-04-01 11:23:00,
2013-04-01 07:29:00,39.8,37.7,29.56,West,259,0.0,0.0,92,0.00,,,0.05,114,Wunderground v.1.15,2013-04-01 11:29:00,
2013-04-01 07:35:00,40.2,38.1,29.55,West,259,0.0,1.0,92,0.00,,,0.05,105,Wunderground v.1.15,2013-04-01 11:35:00,
2013-04-01 07:40:00,40.5,38.4,29.55,WSW,243,0.0,0.0,92,0.00,,,0.05,100,Wunderground v.1.15,2013-04-01 11:40:00,
2013-04-01 07:45:00,40.8,38.4,29.55,WSW,243,0.0,0.0,91,0.00,,,0.05,95,Wunderground v.1.15,2013-04-01 11:45:00,
2013-04-01 07:51:00,41.1,38.7,29.55,WSW,243,0.0,0.0,91,0.00,,,0.05,77,Wunderground v.1.15,2013-04-01 11:51:00,
2013-04-01 07:56:00,41.2,38.5,29.55,SW,229,0.0,2.0,90,0.00,,,0.05,54,Wunderground v.1.15,2013-04-01 11:56:00,
2013-04-01 08:02:00,41.3,38.3,29.55,SE,143,1.0,1.0,89,0.00,,,0.05,49,Wunderground v.1.15,2013-04-01 12:02:00,
2013-04-01 08:07:00,41.5,38.5,29.55,SE,144,0.0,1.0,89,0.00,,,0.05,33,Wunderground v.1.15,2013-04-01 12:07:00,
2013-04-01 08:13:00,41.5,38.2,29.55,SE,144,0.0,2.0,88,0.00,,,0.05,35,Wunderground v.1.15,2013-04-01 12:13:00,
2013-04-01 08:19:00,41.5,38.2,29.55,SSE,153,0.0,2.0,88,0.00,,,0.05,107,Wunderground v.1.15,2013-04-01 12:19:00,
2013-04-01 08:25:00,41.6,38.0,29.55,SSE,153,0.0,1.0,87,0.00,,,0.05,148,Wunderground v.1.15,2013-04-01 12:25:00,
2013-04-01 08:31:00,41.8,37.9,29.55,SSE,153,0.0,0.0,86,0.00,,,0.05,49,Wunderground v.1.15,2013-04-01 12:31:00,
2013-04-01 08:37:00,41.9,38.0,29.55,SSE,153,0.0,0.0,86,0.00,,,0.05,156,Wunderground v.1.15,2013-04-01 12:37:00,
2013-04-01 08:42:00,42.1,38.2,29.55,ENE,77,0.0,2.0,86,0.00,,,0.05,172,Wunderground v.1.15,2013-04-01 12:42:00,
2013-04-01 08:48:00,42.5,38.6,29.52,East,89,1.0,5.0,86,0.00,,,0.05,424,Wunderground v.1.15,2013-04-01 12:48:00,
2013-04-01 08:54:00,42.9,38.4,29.52,NE,52,1.0,3.0,84,0.00,,,0.05,79,Wunderground v.1.15,2013-04-01 12:54:00,
2013-04-01 08:59:00,42.9,38.1,29.52,NNE,15,2.0,5.0,83,0.00,,,0.05,88,Wunderground v.1.15,2013-04-01 12:59:00,
2013-04-01 09:06:00,42.8,37.7,29.53,East,86,2.0,3.0,82,0.00,,,0.05,60,Wunderground v.1.15,2013-04-01 13:06:00,
2013-04-01 09:11:00,42.5,37.4,29.53,ENE,68,2.0,2.0,82,0.00,,,0.05,47,Wunderground v.1.15,2013-04-01 13:11:00,
2013-04-01 09:17:00,42.3,37.2,29.53,East,82,2.0,4.0,82,0.00,,,0.05,58,Wunderground v.1.15,2013-04-01 13:17:00,
2013-04-01 09:23:00,42.2,37.1,29.53,ESE,117,3.0,4.0,82,0.00,,,0.05,54,Wunderground v.1.15,2013-04-01 13:23:00,
2013-04-01 09:28:00,42.1,37.3,29.53,ESE,121,2.0,4.0,83,0.00,,,0.05,62,Wunderground v.1.15,2013-04-01 13:28:00,
2013-04-01 09:34:00,42.1,37.3,29.53,ESE,121,1.0,2.0,83,0.00,,,0.05,83,Wunderground v.1.15,2013-04-01 13:34:00,
2013-04-01 09:41:00,42.2,37.4,29.53,East,90,1.0,3.0,83,0.00,,,0.05,93,Wunderground v.1.15,2013-04-01 13:41:00,
2013-04-01 09:46:00,42.2,37.4,29.52,ESE,122,2.0,3.0,83,0.00,,,0.05,98,Wunderground v.1.15,2013-04-01 13:46:00,
2013-04-01 09:52:00,42.3,37.5,29.52,SW,226,1.0,2.0,83,0.00,,,0.05,97,Wunderground v.1.15,2013-04-01 13:52:00,
2013-04-01 09:57:00,42.5,37.7,29.52,NNE,28,1.0,3.0,83,0.00,,,0.05,86,Wunderground v.1.15,2013-04-01 13:57:00,
2013-04-01 10:03:00,42.8,38.0,29.52,East,89,1.0,3.0,83,0.00,,,0.05,120,Wunderground v.1.15,2013-04-01 14:03:00,
2013-04-01 10:09:00,42.9,38.1,29.52,East,89,1.0,3.0,83,0.00,,,0.05,70,Wunderground v.1.15,2013-04-01 14:09:00,
2013-04-01 10:14:00,42.9,38.1,29.52,North,6,1.0,1.0,83,0.00,,,0.05,114,Wunderground v.1.15,2013-04-01 14:14:00,
2013-04-01 10:20:00,43.1,38.3,29.52,NE,36,0.0,2.0,83,0.00,,,0.05,98,Wunderground v.1.15,2013-04-01 14:20:00,
2013-04-01 10:27:00,43.2,38.1,29.52,NE,36,1.0,2.0,82,0.00,,,0.05,77,Wunderground v.1.15,2013-04-01 14:27:00,
2013-04-01 10:32:00,43.2,38.1,29.51,NE,37,1.0,2.0,82,0.00,,,0.05,56,Wunderground v.1.15,2013-04-01 14:32:00,
2013-04-01 10:37:00,43.3,38.2,29.51,East,79,1.0,2.0,82,0.00,,,0.05,63,Wunderground v.1.15,2013-04-01 14:37:00,
2013-04-01 10:43:00,43.3,38.2,29.51,East,79,0.0,1.0,82,0.00,,,0.05,79,Wunderground v.1.15,2013-04-01 14:43:00,
2013-04-01 10:49:00,43.5,38.4,29.50,NNE,33,0.0,2.0,82,0.00,,,0.05,88,Wunderground v.1.15,2013-04-01 14:49:00,
2013-04-01 10:55:00,43.5,38.4,29.50,NNE,33,1.0,2.0,82,0.00,,,0.05,79,Wunderground v.1.15,2013-04-01 14:55:00,
2013-04-01 11:01:00,43.5,38.4,29.50,NE,41,1.0,1.0,82,0.00,,,0.05,56,Wunderground v.1.15,2013-04-01 15:01:00,
2013-04-01 11:06:00,43.5,38.1,29.50,East,98,1.0,3.0,81,0.00,,,0.05,67,Wunderground v.1.15,2013-04-01 15:06:00,
2013-04-01 11:12:00,43.6,38.2,29.50,East,98,1.0,3.0,81,0.00,,,0.05,54,Wunderground v.1.15,2013-04-01 15:12:00,
2013-04-01 11:17:00,43.6,38.5,29.50,ESE,123,0.0,3.0,82,0.00,,,0.05,49,Wunderground v.1.15,2013-04-01 15:17:00,
2013-04-01 11:23:00,43.6,38.2,29.50,ESE,109,0.0,2.0,81,0.00,,,0.05,46,Wunderground v.1.15,2013-04-01 15:23:00,
2013-04-01 11:28:00,43.6,38.2,29.50,ESE,108,0.0,2.0,81,0.00,,,0.05,63,Wunderground v.1.15,2013-04-01 15:28:00,
2013-04-01 11:34:00,43.8,38.3,29.50,East,94,0.0,1.0,81,0.00,,,0.05,113,Wunderground v.1.15,2013-04-01 15:34:00,
2013-04-01 11:40:00,43.9,38.8,29.50,East,94,0.0,1.0,82,0.00,,,0.05,63,Wunderground v.1.15,2013-04-01 15:40:00,
2013-04-01 11:45:00,44.1,38.6,29.50,East,94,1.0,2.0,81,0.00,,,0.05,30,Wunderground v.1.15,2013-04-01 15:45:00,
2013-04-01 11:51:00,44.1,38.3,29.50,East,94,1.0,1.0,80,0.00,,,0.05,42,Wunderground v.1.15,2013-04-01 15:51:00,
2013-04-01 11:56:00,44.1,38.6,29.50,East,94,0.0,1.0,81,0.00,,,0.05,81,Wunderground v.1.15,2013-04-01 15:56:00,
2013-04-01 12:02:00,44.1,39.0,29.50,East,94,0.0,3.0,82,0.00,,,0.05,153,Wunderground v.1.15,2013-04-01 16:02:00,
2013-04-01 12:08:00,44.3,39.5,29.50,East,94,0.0,3.0,83,0.00,,,0.05,144,Wunderground v.1.15,2013-04-01 16:08:00,
2013-04-01 12:13:00,44.6,39.8,29.50,ENE,57,0.0,0.0,83,0.00,,,0.05,167,Wunderground v.1.15,2013-04-01 16:13:00,
2013-04-01 12:19:00,44.9,40.4,29.49,ENE,57,0.0,0.0,84,0.00,,,0.05,146,Wunderground v.1.15,2013-04-01 16:19:00,
2013-04-01 12:24:00,44.9,40.0,29.49,ENE,57,0.0,2.0,83,0.00,,,0.05,130,Wunderground v.1.15,2013-04-01 16:24:00,
2013-04-01 12:31:00,45.1,40.2,29.49,ENE,57,0.0,0.0,83,0.00,,,0.05,102,Wunderground v.1.15,2013-04-01 16:31:00,
2013-04-01 12:36:00,45.1,40.2,29.49,ENE,57,0.0,1.0,83,0.00,,,0.05,109,Wunderground v.1.15,2013-04-01 16:36:00,
2013-04-01 12:42:00,45.1,40.2,29.49,ENE,57,0.0,0.0,83,0.00,,,0.05,181,Wunderground v.1.15,2013-04-01 16:42:00,
2013-04-01 12:47:00,45.2,40.0,29.49,ENE,58,0.0,3.0,82,0.00,,,0.05,181,Wunderground v.1.15,2013-04-01 16:47:00,
2013-04-01 12:53:00,45.5,40.3,29.49,ENE,58,1.0,2.0,82,0.00,,,0.05,207,Wunderground v.1.15,2013-04-01 16:53:00,
2013-04-01 12:58:00,45.8,40.6,29.49,ENE,65,0.0,2.0,82,0.00,,,0.05,185,Wunderground v.1.15,2013-04-01 16:58:00,
2013-04-01 13:04:00,46.2,40.7,29.49,ENE,65,0.0,1.0,81,0.00,,,0.05,204,Wunderground v.1.15,2013-04-01 17:04:00,
2013-04-01 13:09:00,46.2,40.4,29.49,NNE,30,0.0,1.0,80,0.00,,,0.05,160,Wunderground v.1.15,2013-04-01 17:09:00,
2013-04-01 13:15:00,46.2,40.0,29.48,NE,51,1.0,4.0,79,0.00,,,0.05,100,Wunderground v.1.15,2013-04-01 17:15:00,
2013-04-01 13:20:00,46.1,40.3,29.48,NNE,25,1.0,1.0,80,0.00,,,0.05,95,Wunderground v.1.15,2013-04-01 17:20:00,
2013-04-01 13:25:00,46.0,39.9,29.48,ESE,103,1.0,3.0,79,0.00,,,0.05,47,Wunderground v.1.15,2013-04-01 17:25:00,
2013-04-01 13:31:00,45.8,39.3,29.49,ESE,108,2.0,4.0,78,0.00,,,0.05,86,Wunderground v.1.15,2013-04-01 17:31:00,
2013-04-01 13:37:00,45.2,36.4,29.49,ENE,78,3.0,4.0,71,0.00,,,0.05,105,Wunderground v.1.15,2013-04-01 17:37:00,
2013-04-01 13:43:00,45.1,35.9,29.49,ENE,78,2.0,2.0,70,0.00,,,0.05,74,Wunderground v.1.15,2013-04-01 17:43:00,
2013-04-01 13:49:00,44.5,36.0,29.51,East,82,2.0,3.0,72,0.00,,,0.05,54,Wunderground v.1.15,2013-04-01 17:49:00,
2013-04-01 13:54:00,43.6,35.9,29.51,East,89,2.0,3.0,74,0.00,,,0.05,60,Wunderground v.1.15,2013-04-01 17:54:00,
2013-04-01 14:01:00,42.8,35.1,29.51,East,89,1.0,1.0,74,0.00,,,0.05,47,Wunderground v.1.15,2013-04-01 18:01:00,
2013-04-01 14:06:00,42.6,35.6,29.51,East,89,0.0,1.0,76,0.00,,,0.05,46,Wunderground v.1.15,2013-04-01 18:06:00,
2013-04-01 14:11:00,42.3,35.6,29.51,East,89,0.0,3.0,77,0.00,,,0.05,44,Wunderground v.1.15,2013-04-01 18:11:00,
2013-04-01 14:17:00,42.2,35.5,29.52,East,89,0.0,3.0,77,0.00,,,0.05,46,Wunderground v.1.15,2013-04-01 18:17:00,
2013-04-01 14:23:00,42.1,35.1,29.52,East,89,0.0,2.0,76,0.00,,,0.05,53,Wunderground v.1.15,2013-04-01 18:23:00,
2013-04-01 14:28:00,42.1,35.4,29.52,East,89,0.0,2.0,77,0.00,,,0.05,63,Wunderground v.1.15,2013-04-01 18:28:00,
2013-04-01 14:34:00,41.9,32.5,29.54,East,86,1.0,4.0,69,0.00,,,0.05,90,Wunderground v.1.15,2013-04-01 18:34:00,
2013-04-01 14:39:00,42.1,30.4,29.54,ENE,77,1.0,4.0,63,0.00,,,0.05,81,Wunderground v.1.15,2013-04-01 18:39:00,
2013-04-01 14:45:00,42.3,28.6,29.54,East,91,2.0,5.0,58,0.00,,,0.05,91,Wunderground v.1.15,2013-04-01 18:45:00,
2013-04-01 14:50:00,42.6,30.5,29.54,East,96,2.0,4.0,62,0.00,,,0.05,116,Wunderground v.1.15,2013-04-01 18:50:00,
2013-04-01 14:56:00,42.8,29.9,29.54,East,98,1.0,4.0,60,0.00,,,0.05,105,Wunderground v.1.15,2013-04-01 18:56:00,
2013-04-01 15:01:00,42.8,27.7,29.55,East,95,2.0,4.0,55,0.00,,,0.05,93,Wunderground v.1.15,2013-04-01 19:01:00,
2013-04-01 15:07:00,42.6,26.6,29.55,NE,48,3.0,4.0,53,0.00,,,0.05,111,Wunderground v.1.15,2013-04-01 19:07:00,
2013-04-01 15:13:00,42.5,26.1,29.55,ENE,73,3.0,4.0,52,0.00,,,0.05,111,Wunderground v.1.15,2013-04-01 19:13:00,
2013-04-01 15:19:00,42.5,26.1,29.57,East,95,3.0,5.0,52,0.00,,,0.05,120,Wunderground v.1.15,2013-04-01 19:19:00,
2013-04-01 15:25:00,42.3,25.0,29.57,East,98,2.0,3.0,50,0.00,,,0.05,102,Wunderground v.1.15,2013-04-01 19:25:00,
2013-04-01 15:31:00,42.2,25.8,29.57,East,86,2.0,3.0,52,0.00,,,0.05,69,Wunderground v.1.15,2013-04-01 19:31:00,
2013-04-01 15:36:00,42.1,25.3,29.57,NE,44,2.0,6.0,51,0.00,,,0.05,100,Wunderground v.1.15,2013-04-01 19:36:00,
2013-04-01 15:41:00,41.9,26.4,29.57,NE,50,2.0,2.0,54,0.00,,,0.05,113,Wunderground v.1.15,2013-04-01 19:41:00,
2013-04-01 15:46:00,41.9,24.6,29.58,NE,40,2.0,4.0,50,0.00,,,0.05,111,Wunderground v.1.15,2013-04-01 19:46:00,
2013-04-01 15:52:00,41.8,23.5,29.58,NNE,13,3.0,6.0,48,0.00,,,0.05,86,Wunderground v.1.15,2013-04-01 19:52:00,
2013-04-01 15:57:00,41.5,22.2,29.58,ENE,67,3.0,6.0,46,0.00,,,0.05,84,Wunderground v.1.15,2013-04-01 19:57:00,
2013-04-01 16:03:00,41.1,20.8,29.59,NE,50,2.0,4.0,44,0.00,,,0.05,90,Wunderground v.1.15,2013-04-01 20:03:00,
2013-04-01 16:09:00,40.6,21.9,29.59,ESE,110,3.0,6.0,47,0.00,,,0.05,155,Wunderground v.1.15,2013-04-01 20:09:00,
2013-04-01 16:14:00,40.9,23.2,29.59,ENE,62,3.0,4.0,49,0.00,,,0.05,749,Wunderground v.1.15,2013-04-01 20:14:00,
2013-04-01 16:20:00,42.5,23.2,29.60,ENE,65,3.0,3.0,46,0.00,,,0.05,636,Wunderground v.1.15,2013-04-01 20:20:00,
2013-04-01 16:26:00,43.6,22.5,29.60,East,91,3.0,5.0,43,0.00,,,0.05,612,Wunderground v.1.15,2013-04-01 20:26:00,
2013-04-01 16:31:00,44.6,22.3,29.60,ESE,120,3.0,5.0,41,0.00,,,0.06,575,Wunderground v.1.15,2013-04-01 20:31:00,
2013-04-01 16:37:00,44.5,17.1,29.60,NE,51,3.0,10.0,33,0.00,,,0.06,499,Wunderground v.1.15,2013-04-01 20:37:00,
2013-04-01 16:42:00,43.6,17.7,29.60,ENE,72,3.0,5.0,35,0.00,,,0.06,464,Wunderground v.1.15,2013-04-01 20:42:00,
2013-04-01 16:47:00,43.2,18.6,29.61,ENE,75,3.0,6.0,37,0.00,,,0.06,461,Wunderground v.1.15,2013-04-01 20:47:00,
2013-04-01 16:53:00,43.1,17.3,29.61,ESE,116,3.0,5.0,35,0.00,,,0.06,411,Wunderground v.1.15,2013-04-01 20:53:00,
2013-04-01 16:58:00,42.1,15.0,29.61,ESE,122,4.0,5.0,33,0.00,,,0.06,385,Wunderground v.1.15,2013-04-01 20:58:00,
2013-04-01 17:04:00,41.9,14.8,29.62,ESE,113,3.0,4.0,33,0.00,,,0.06,267,Wunderground v.1.15,2013-04-01 21:04:00,
2013-04-01 17:09:00,41.6,13.2,29.62,SSE,165,3.0,4.0,31,0.00,,,0.06,149,Wunderground v.1.15,2013-04-01 21:09:00,
2013-04-01 17:16:00,41.1,13.4,29.63,NE,46,3.0,3.0,32,0.00,,,0.06,107,Wunderground v.1.15,2013-04-01 21:16:00,
2013-04-01 17:22:00,40.6,12.3,29.63,SSE,157,2.0,9.0,31,0.00,,,0.06,83,Wunderground v.1.15,2013-04-01 21:22:00,
2013-04-01 17:28:00,40.3,11.3,29.63,ESE,121,2.0,9.0,30,0.00,,,0.06,86,Wunderground v.1.15,2013-04-01 21:28:00,
2013-04-01 17:34:00,40.3,11.3,29.64,ENE,65,2.0,4.0,30,0.00,,,0.06,102,Wunderground v.1.15,2013-04-01 21:34:00,
2013-04-01 17:39:00,40.1,11.8,29.64,ESE,103,2.0,4.0,31,0.00,,,0.06,44,Wunderground v.1.15,2013-04-01 21:39:00,
2013-04-01 17:44:00,39.6,12.1,29.64,NE,56,2.0,5.0,32,0.00,,,0.06,67,Wunderground v.1.15,2013-04-01 21:44:00,
2013-04-01 17:51:00,39.2,12.5,29.66,ENE,77,2.0,2.0,33,0.00,,,0.06,47,Wunderground v.1.15,2013-04-01 21:51:00,
2013-04-01 17:56:00,38.8,12.1,29.66,NE,43,2.0,4.0,33,0.00,,,0.06,69,Wunderground v.1.15,2013-04-01 21:56:00,
2013-04-01 18:01:00,38.5,10.4,29.67,ESE,117,3.0,5.0,31,0.00,,,0.06,81,Wunderground v.1.15,2013-04-01 22:01:00,
2013-04-01 18:07:00,38.2,12.3,29.67,ENE,68,3.0,5.0,34,0.00,,,0.06,93,Wunderground v.1.15,2013-04-01 22:07:00,
2013-04-01 18:13:00,37.9,14.5,29.67,ENE,70,2.0,3.0,38,0.00,,,0.06,69,Wunderground v.1.15,2013-04-01 22:13:00,
2013-04-01 18:19:00,37.6,13.6,29.68,ESE,121,2.0,5.0,37,0.00,,,0.06,37,Wunderground v.1.15,2013-04-01 22:19:00,
2013-04-01 18:24:00,37.3,12.7,29.68,ENE,72,2.0,5.0,36,0.00,,,0.06,42,Wunderground v.1.15,2013-04-01 22:24:00,
2013-04-01 18:30:00,36.8,13.5,29.68,East,98,3.0,3.0,38,0.00,,,0.06,33,Wunderground v.1.15,2013-04-01 22:30:00,
2013-04-01 18:36:00,36.3,12.5,29.68,ENE,75,3.0,4.0,37,0.00,,,0.06,19,Wunderground v.1.15,2013-04-01 22:36:00,
2013-04-01 18:42:00,35.9,12.1,29.68,East,101,2.0,5.0,37,0.00,,,0.06,23,Wunderground v.1.15,2013-04-01 22:42:00,
2013-04-01 18:47:00,35.6,12.5,29.70,WSW,243,2.0,5.0,38,0.00,,,0.06,19,Wunderground v.1.15,2013-04-01 22:47:00,
2013-04-01 18:53:00,35.2,12.1,29.70,East,79,2.0,4.0,38,0.00,,,0.06,14,Wunderground v.1.15,2013-04-01 22:53:00,
2013-04-01 18:59:00,34.9,11.8,29.70,NE,55,2.0,5.0,38,0.00,,,0.06,16,Wunderground v.1.15,2013-04-01 22:59:00,
2013-04-01 19:06:00,34.6,13.3,29.70,ENE,65,2.0,6.0,41,0.00,,,0.06,14,Wunderground v.1.15,2013-04-01 23:06:00,
2013-04-01 19:12:00,34.4,13.1,29.70,ESE,122,2.0,2.0,41,0.00,,,0.06,5,Wunderground v.1.15,2013-04-01 23:12:00,
2013-04-01 19:17:00,34.1,12.8,29.70,East,83,1.0,3.0,41,0.00,,,0.06,0,Wunderground v.1.15,2013-04-01 23:17:00,
2013-04-01 19:23:00,34.0,13.8,29.70,ENE,78,1.0,2.0,43,0.00,,,0.06,0,Wunderground v.1.15,2013-04-01 23:23:00,
2013-04-01 19:29:00,33.8,14.2,29.70,East,91,0.0,2.0,44,0.00,,,0.06,0,Wunderground v.1.15,2013-04-01 23:29:00,
2013-04-01 19:34:00,33.8,14.2,29.71,East,90,0.0,2.0,44,0.00,,,0.06,0,Wunderground v.1.15,2013-04-01 23:34:00,
2013-04-01 19:41:00,33.7,15.6,29.71,East,87,1.0,1.0,47,0.00,,,0.06,0,Wunderground v.1.15,2013-04-01 23:41:00,
2013-04-01 19:46:00,33.7,12.5,29.72,NE,53,1.0,3.0,41,0.00,,,0.06,0,Wunderground v.1.15,2013-04-01 23:46:00,
2013-04-01 19:52:00,33.7,14.6,29.72,East,80,1.0,1.0,45,0.00,,,0.06,0,Wunderground v.1.15,2013-04-01 23:52:00,
2013-04-01 19:58:00,33.5,14.9,29.72,NE,47,0.0,4.0,46,0.00,,,0.06,0,Wunderground v.1.15,2013-04-01 23:58:00,
2013-04-01 20:03:00,33.4,14.3,29.73,North,8,1.0,1.0,45,0.00,,,0.06,0,Wunderground v.1.15,2013-04-02 00:03:00,
2013-04-01 20:08:00,33.2,15.6,29.73,SE,125,1.0,2.0,48,0.00,,,0.06,0,Wunderground v.1.15,2013-04-02 00:08:00,
2013-04-01 20:14:00,32.9,15.3,29.73,ENE,61,1.0,1.0,48,0.00,,,0.06,0,Wunderground v.1.15,2013-04-02 00:14:00,
2013-04-01 20:20:00,32.7,15.6,29.74,SE,126,1.0,1.0,49,0.00,,,0.06,0,Wunderground v.1.15,2013-04-02 00:20:00,
2013-04-01 20:26:00,32.5,15.4,29.74,East,84,1.0,4.0,49,0.00,,,0.06,0,Wunderground v.1.15,2013-04-02 00:26:00,
2013-04-01 20:31:00,32.2,15.2,29.75,South,190,1.0,2.0,49,0.00,,,0.06,0,Wunderground v.1.15,2013-04-02 00:31:00,
2013-04-01 20:36:00,32.1,12.6,29.75,ENE,68,1.0,6.0,44,0.00,,,0.06,0,Wunderground v.1.15,2013-04-02 00:36:00,
2013-04-01 20:41:00,32.1,12.6,29.75,NE,55,2.0,2.0,44,0.00,,,0.06,0,Wunderground v.1.15,2013-04-02 00:41:00,
2013-04-01 20:47:00,31.9,12.4,29.75,ESE,117,1.0,2.0,44,0.00,,,0.06,0,Wunderground v.1.15,2013-04-02 00:47:00,
2013-04-01 20:53:00,31.8,12.8,29.75,ESE,111,1.0,1.0,45,0.00,,,0.06,0,Wunderground v.1.15,2013-04-02 00:53:00,
2013-04-01 20:59:00,31.6,12.7,29.75,South,181,1.0,3.0,45,0.00,,,0.06,0,Wunderground v.1.15,2013-04-02 00:59:00,
2013-04-01 21:06:00,31.6,12.2,29.75,WSW,246,1.0,2.0,44,0.00,,,0.06,0,Wunderground v.1.15,2013-04-02 01:06:00,
2013-04-01 21:12:00,31.5,13.1,29.75,East,82,1.0,5.0,46,0.00,,,0.06,0,Wunderground v.1.15,2013-04-02 01:12:00,
2013-04-01 21:17:00,31.5,12.1,29.75,East,83,1.0,5.0,44,0.00,,,0.06,0,Wunderground v.1.15,2013-04-02 01:17:00,
2013-04-01 21:23:00,31.3,12.4,29.75,East,83,1.0,2.0,45,0.00,,,0.06,0,Wunderground v.1.15,2013-04-02 01:23:00,
2013-04-01 21:28:00,31.3,12.4,29.75,North,0,1.0,2.0,45,0.00,,,0.06,0,Wunderground v.1.15,2013-04-02 01:28:00,
2013-04-01 21:33:00,31.2,12.8,29.76,WSW,240,1.0,3.0,46,0.00,,,0.06,0,Wunderground v.1.15,2013-04-02 01:33:00,
2013-04-01 21:39:00,31.2,11.8,29.76,NNE,13,1.0,3.0,44,0.00,,,0.06,0,Wunderground v.1.15,2013-04-02 01:39:00,
2013-04-01 21:45:00,30.9,12.0,29.76,NNE,15,1.0,2.0,45,0.00,,,0.06,0,Wunderground v.1.15,2013-04-02 01:45:00,
2013-04-01 21:50:00,30.7,11.3,29.76,SE,131,1.0,2.0,44,0.00,,,0.06,0,Wunderground v.1.15,2013-04-02 01:50:00,
2013-04-01 21:56:00,30.7,10.3,29.76,East,79,1.0,3.0,42,0.00,,,0.06,0,Wunderground v.1.15,2013-04-02 01:56:00,
2013-04-01 22:01:00,30.6,11.2,29.76,ENE,62,1.0,1.0,44,0.00,,,0.06,0,Wunderground v.1.15,2013-04-02 02:01:00,
2013-04-01 22:07:00,30.6,9.7,29.76,NNE,15,1.0,3.0,41,0.00,,,0.06,0,Wunderground v.1.15,2013-04-02 02:07:00,
2013-04-01 22:12:00,30.6,10.7,29.76,West,262,1.0,1.0,43,0.00,,,0.06,0,Wunderground v.1.15,2013-04-02 02:12:00,
2013-04-01 22:17:00,30.4,10.5,29.76,ESE,110,1.0,4.0,43,0.00,,,0.06,0,Wunderground v.1.15,2013-04-02 02:17:00,
2013-04-01 22:23:00,30.3,11.0,29.76,ESE,104,1.0,2.0,44,0.00,,,0.06,0,Wunderground v.1.15,2013-04-02 02:23:00,
2013-04-01 22:29:00,30.1,9.7,29.76,NNE,25,2.0,4.0,42,0.00,,,0.06,0,Wunderground v.1.15,2013-04-02 02:29:00,
2013-04-01 22:35:00,30.1,9.7,29.76,SSE,153,2.0,9.0,42,0.00,,,0.06,0,Wunderground v.1.15,2013-04-02 02:35:00,
2013-04-01 22:41:00,30.0,10.2,29.76,ENE,58,2.0,2.0,43,0.00,,,0.06,0,Wunderground v.1.15,2013-04-02 02:41:00,
2013-04-01 22:47:00,30.0,10.2,29.76,ENE,78,1.0,2.0,43,0.00,,,0.06,0,Wunderground v.1.15,2013-04-02 02:47:00,
2013-04-01 22:53:00,29.8,10.5,29.76,ESE,110,1.0,3.0,44,0.00,,,0.06,0,Wunderground v.1.15,2013-04-02 02:53:00,
2013-04-01 22:58:00,29.7,9.9,29.76,East,82,1.0,3.0,43,0.00,,,0.06,0,Wunderground v.1.15,2013-04-02 02:58:00,
2013-04-01 23:03:00,29.5,10.2,29.76,NE,56,1.0,1.0,44,0.00,,,0.06,0,Wunderground v.1.15,2013-04-02 03:03:00,
2013-04-01 23:09:00,29.4,9.1,29.76,NE,53,1.0,2.0,42,0.00,,,0.06,0,Wunderground v.1.15,2013-04-02 03:09:00,
2013-04-01 23:15:00,29.1,10.4,29.76,NE,54,1.0,2.0,45,0.00,,,0.06,0,Wunderground v.1.15,2013-04-02 03:15:00,
2013-04-01 23:21:00,29.1,9.4,29.76,ENE,72,1.0,1.0,43,0.00,,,0.06,0,Wunderground v.1.15,2013-04-02 03:21:00,
2013-04-01 23:27:00,29.0,8.7,29.76,NE,56,0.0,1.0,42,0.00,,,0.06,0,Wunderground v.1.15,2013-04-02 03:27:00,
2013-04-01 23:33:00,28.8,10.6,29.76,NE,56,0.0,2.0,46,0.00,,,0.06,0,Wunderground v.1.15,2013-04-02 03:33:00,
2013-04-01 23:39:00,28.7,10.5,29.76,East,98,0.0,2.0,46,0.00,,,0.06,0,Wunderground v.1.15,2013-04-02 03:39:00,
2013-04-01 23:45:00,28.5,9.8,29.76,East,98,0.0,4.0,45,0.00,,,0.06,0,Wunderground v.1.15,2013-04-02 03:45:00,
2013-04-01 23:51:00,28.2,10.5,29.76,East,98,0.0,1.0,47,0.00,,,0.06,0,Wunderground v.1.15,2013-04-02 03:51:00,
2013-04-01 23:57:00,28.1,9.5,29.76,ENE,68,0.0,2.0,45,0.00,,,0.06,0,Wunderground v.1.15,2013-04-02 03:57:00,